Location: Arboucave
(43.6130°N, 0.4343°W)
Time: 00:37:22
(UTC+00:00)

Cosmos 2251 Rocket - Pass Details

Date: 17 November 2025
Orbit: 760 x 788 km, 74.0° (Epoch: 11 December)

Event Time Altitude Azimuth Distance (km) Brightness Sun altitude
Rises 17:59:37 0° 196° (SSW) 3,226 7.1 -15.4°
Reaches altitude 10° 18:01:58 10° 195° (SSW) 2,308 6.3 -15.8°
Maximum altitude 18:07:13 82° 108° (ESE) 790 3.4 -16.7°
Drops below altitude 10° 18:12:33 10° 22° (NNE) 2,343 5.7 -17.6°
Enters shadow 18:12:37 10° 22° (NNE) 2,371 5.7 -17.7°
